Location: Baia de Cri?
(46.1667°N, 22.7167°E)
Time: 21:22:36
(UTC+00:00)

Cosmos 540 Rocket - Pass Details

Date: 15 January 2026
Orbit: 736 x 747 km, 74.1° (Epoch: 10 February)

Event Time Altitude Azimuth Distance (km) Brightness Sun altitude
Exits shadow 05:12:57 - 337° (NNW) 3,083 6.2 -9.4°
Reaches altitude 10° 05:15:04 10° 337° (NNW) 2,251 5.5 -9.0°
Maximum altitude 05:20:10 84° 251° (WSW) 747 3.4 -8.2°
Drops below altitude 10° 05:25:15 10° 163° (SSE) 2,238 6.5 -7.4°
Sets 05:27:35 0° 163° (SSE) 3,158 7.3 -7.0°
